Regional Weather Roundup
Issued by NWS State College, PA

Home | Current Version | Previous Version | Graphics & Text | Print | Product List | Glossary On
Versions: 1 2 3 4 5 6 7 8 9 10 11 12 13 14 15 16 17 18 19 20 21 22 23 24 25 26 27 28 29 30 31 32 33 34 35 36 37 38 39 40 41 42 43 44 45 46 47 48 49 50
000
ASUS41 KCTP 290010
RWRCTP

REGIONAL WEATHER ROUNDUP
NATIONAL WEATHER SERVICE STATE COLLEGE PA
800 PM EDT MON JUL 28 2014

Note: "fair" indicates few or no clouds below 12,000 feet with no
significant weather and/or obstructions to visibility.

* = STATION THAT DOES NOT REPORT PRECIPITATION /E.G. RAIN...SNOW...ETC/
    THUNDER OR FOG.

PAZ002>004-007>009-013>016-020>023-029>032-290100-
WESTERN PENNSYLVANIA

CITY           SKY/WX    TMP DP  RH WIND       PRES   REMARKS
ERIE           CLOUDY    63  51  65 W12G22    29.90R
MEADVILLE      PTCLDY    57  50  77 NW8G18    29.92R
FRANKLIN*      CLOUDY    57  52  82 NW9       29.93R
NEW CASTLE       N/A     61  54  77 CALM      29.94R
BEAVER COUNTY  MOCLDY    61  54  77 N8        29.92R
BUTLER*        CLOUDY    59  54  82 NW5       29.93R
PITTSBURGH INT PTCLDY    63  56  78 NW12      29.91R
PITTSBURGH     CLOUDY    61  54  77 NW17      29.90R
INDIANA*       CLOUDY    63  57  82 NW6       29.92R
LATROBE        CLOUDY    61  61 100 NW12      29.91R
WASHINGTON CO* MOCLDY    63  54  72 NW5       29.93R
$$

PAZ004>006-010>012-017>019-024>028-033>037-041-042-045-046-049>053-290100-
CENTRAL PENNSYLVANIA

CITY           SKY/WX    TMP DP  RH WIND       PRES   REMARKS
BRADFORD       CLOUDY    57  54  89 W5        29.86R
DUBOIS         CLOUDY    59  56  89 NW6       29.87R
CLEARFIELD     CLOUDY    62  55  77 NW7       29.85R
JOHNSTOWN      CLOUDY    58  55  90 NW16G22   29.88R
ALTOONA        CLOUDY    64  57  78 NW15G22   29.85R
STATE COLLEGE  MOCLDY    64  57  77 NW9       29.83R
WILLIAMSPORT   CLOUDY    68  54  60 NW10      29.75R
SELINSGROVE    MOCLDY    68  59  73 NW7       29.75R
FT INDIANTOWN  MOCLDY    68  64  89 W6        29.74R
CAPITAL CITY   MOCLDY    65  63  93 W6        29.75R
HARRISBURG     CLOUDY    67  62  84 NW12      29.74R
YORK           CLOUDY    66  62  87 NW3       29.76R
$$

PAZ038>040-043-044-047-048-054-055-060>062-067>071-290100-
EASTERN PENNSYLVANIA

CITY           SKY/WX    TMP DP  RH WIND       PRES   REMARKS
SCRANTON       CLOUDY    65  57  75 NW10      29.73R
MOUNT POCONO   CLOUDY    61  56  83 NW14G24   29.71R
ALLENTOWN      MOCLDY    69  61  75 W12       29.69R
QUAKERTOWN*    PTCLDY    66  63  88 W6        29.70R
READING        MOCLDY    69  62  78 W8        29.71R
LANCASTER      LGT RAIN  65  62  90 W7        29.73R
COATESVILLE    LGT RAIN  64  64 100 NW9       29.73R
POTTSTOWN      MOCLDY    69  60  73 MISG      29.72R
BLUE BELL      PTCLDY    72  61  68 W10       29.69R
DOYLESTOWN     PTCLDY    68  60  75 W7        29.68R
WILLOW GROVE   NOT AVBL
NORTH PHILA    MOCLDY    75  57  53 W15       29.68R
PHILADELPHIA   LGT RAIN  78  59  51 NW20G30   29.67R
$$



USA.gov is the U.S. government's official web portal to all federal, state and local government web resources and services.